Regional Weather Roundup
Issued by NWS

Home | Current Version | Previous Version | Graphics & Text | Print | Product List | Glossary On
Versions: 1 2 3 4 5 6 7 8 9 10 11 12 13 14 15 16 17 18 19 20 21 22 23 24 25 26 27 28 29 30 31 32 33 34 35 36 37 38 39 40 41 42 43 44 45 46 47 48 49 50
770
ASUS45 KBOU 230907
RWRCO

WEATHER ROUNDUP FOR COLORADO
NATIONAL WEATHER SERVICE DENVER/BOULDER CO
300 AM MDT TUE AUG 23 2016

NOTE: "FAIR" INDICATES FEW OR NO CLOUDS BELOW 12000 FEET WITH NO
SIGNIFICANT WEATHER AND/OR OBSTRUCTIONS TO VISIBILITY.

COZ001>005-013-030-031-231000-
...NORTHWEST COLORADO...

CITY           SKY/WX    TMP DP  RH WIND       PRES   REMARKS
CRAIG          FAIR      48  41  76 E3        30.17R
HAYDEN         FAIR      52  36  54 E8        30.18S
MEEKER         FAIR      47  40  76 VRB5      30.19R
MOUNT WERNER   NOT AVBL
STEAMBOAT SPGS FAIR      47  38  70 CALM      30.20R
WALDEN         FAIR      37  32  81 SE6       30.25S
$$

COZ006>008-011-231000-
...WEST CENTRAL VALLEYS...

CITY           SKY/WX    TMP DP  RH WIND       PRES   REMARKS
GRAND JUNCTION FAIR      63  52  67 CALM      30.11S
MONTROSE       FAIR      55  44  66 S9        30.20S
EAGLE          FAIR      54  43  66 E3        30.22S
RIFLE          FAIR      56  47  71 E7        30.16S
DELTA          NOT AVBL
NUCLA          FAIR      55  46  71 E9        30.23S
$$

COZ017>023-064>068-231000-
...SOUTHWEST COLORADO...

CITY           SKY/WX    TMP DP  RH WIND       PRES   REMARKS
DURANGO        MOCLDY    54  49  83 N3        30.23S
CORTEZ         FAIR      53  49  86 SE3       30.18S
PAGOSA SPRINGS FAIR      49  49  99 CALM      30.30S
TELLURIDE      FAIR      45  44  95 SE6       30.39S
WOLF CREEK PAS CLOUDY    37  37 100 SW21      30.52F
$$

COZ009-010-012-014-032>034-037-058>063-231000-
...CENTRAL COLORADO...

CITY           SKY/WX    TMP DP  RH WIND       PRES   REMARKS
ASPEN          MOCLDY    50  42  74 S3        30.27S
BUENA VISTA    FAIR      44  36  74 NW7       30.25S
COPPER MTN     FAIR      45  32  61 W12       30.49F
BERTHOUD PASS  FAIR      34  21  60 N16G23    30.50S WCI  23
COTTONWOOD PAS FAIR      52  34  50 W10       30.35S
GUNNISON       MOCLDY    46  43  87 CALM      30.32S
KREMMLING      FAIR      41  32  70 CALM      30.26R
LEADVILLE      CLOUDY    42  35  76 NE3       30.35S
SALIDA         FAIR      50  41  70 S3        30.29S
SUNLIGHT       CLOUDY    45  41  87 NE7       30.46F
WILKERSON PASS NOT AVBL
$$

COZ069>075-231000-
...SAN LUIS VALLEY/SANGRE DE CRISTO MOUNTAINS...

CITY           SKY/WX    TMP DP  RH WIND       PRES   REMARKS
ALAMOSA        FAIR      47  42  83 S5        30.25S
LA VETA PASS   FAIR      43  37  81 S14G25    30.34F
SAGUACHE       FAIR      46  41  81 W9        30.28S
$$

COZ035-036-038>040-231000-
...NORTHERN COLORADO FRONT RANGE...

CITY           SKY/WX    TMP DP  RH WIND       PRES   REMARKS
DENVER INTL AP FAIR      65  40  39 SW15      29.96S
DMNS CITY PARK   N/A     64  41  43 S6        29.97R
AURORA         PTCLDY    59  41  50 S8        29.99S
FRONT RANGE AP NOT AVBL
ERIE MUNI ARPT FAIR      58  38  46 CALM      29.94R
BOULDER MUN AP FAIR      73  34  23 SW7       29.94S
CENTENNIAL     FAIR      61  38  42 S5        30.01R
BROOMFIELD     FAIR      70  34  26 CALM      29.98S
FORT COLLINS   FAIR      61  43  51 CALM      29.92S
LONGMONT       FAIR      59  42  53 CALM      29.95R
$$

COZ041-046-047-076>085-087-088-231000-
...PIKES PEAK/PALMER DIVIDE AND SOUTHERN FOOTHILLS...

CITY           SKY/WX    TMP DP  RH WIND       PRES   REMARKS
COLO. SPRINGS  FAIR      61  41  47 NW6       30.06R
A. F. ACADEMY  FAIR      64  37  36 N5        30.07R
SCHRIEVER AFB  NOT AVBL
ELLICOTT       NOT AVBL
FALCON         FAIR      60  37  42 W10       30.10R
FORT CARSON    FAIR      59  40  49 NE2       30.01S
LIMON          FAIR      53  39  59 NW9       29.97R
MONUMENT HILL  FAIR      57  36  44 SW10      30.11S
TRINIDAD       FAIR      59  44  57 NW7       30.05F
$$

COZ042>045-048>051-090-091-231000-
...NORTHEAST COLORADO...

CITY           SKY/WX    TMP DP  RH WIND       PRES   REMARKS
GREELEY ARPT   FAIR      54  46  76 SW3       29.92R
AKRON          FAIR      57  44  62 SW9       29.90S
BURLINGTON     FAIR      64  55  72 SW10      29.88S
WRAY           NOT AVBL
STERLING       FAIR      54  52  94 W7        29.86R
HOLYOKE        FAIR      68  59  73 SE13      29.86F
FORT MORGAN    FAIR      55  42  60 W6        29.91R
$$

COZ086-089-092>099-231000-
...SOUTHEAST COLORADO...

CITY           SKY/WX    TMP DP  RH WIND       PRES   REMARKS
PUEBLO         FAIR      71  42  35 W12       29.95R
LA JUNTA       FAIR      67  47  48 SW12      29.93S
LAMAR          FAIR      68  55  63 SW15      29.87S
SPRINGFIELD      N/A     62  56  80 SW8       29.97F
$$




USA.gov is the U.S. government's official web portal to all federal, state and local government web resources and services.